Wind_Speed
1 1 1 1 1 2 2 3 4 4 4 5 6 6 5 5 5 5 5 5 4 4 4 5 5 6 6 6 6 7 8 8 9 9 9 9 9 9 9 9 8 9 9
1 0 0 1 1 2 2 4 4 4 5 6 6 7 6 5 5 5 5 5 5 5 5 5 5 6 6 6 7 8 8 9 9 10 10 10 10 10 9 9 9 9 10
1 0 0 1 1 1 2 3 4 5 6 6 6 6 6 6 5 5 4 5 5 5 5 6 6 6 6 6 7 8 8 9 9 10 10 10 10 10 10 10 10 10 10
2 1 1 1 0 1 2 3 4 5 6 6 6 6 6 6 6 6 5 5 6 6 6 6 6 7 7 7 8 8 9 9 10 10 10 11 11 11 11 10 10 11 11
2 2 2 2 1 1 2 3 4 5 6 7 6 6 7 7 7 7 7 7 7 7 7 7 7 7 8 8 9 9 9 10 10 10 11 11 11 11 11 11 11 11 11
3 3 2 2 1 1 2 3 5 6 6 7 7 7 7 8 8 8 8 8 7 7 7 7 8 8 8 9 9 10 10 10 11 11 11 11 11 11 11 11 11 11 11
4 3 3 2 1 1 2 4 5 6 7 7 7 8 8 8 8 8 8 7 7 6 6 7 7 7 8 9 10 10 11 11 11 11 12 12 12 12 11 11 11 11 11
4 3 3 3 1 1 2 4 5 6 7 7 7 8 8 8 8 8 8 8 6 6 5 5 6 6 8 9 10 11 11 12 12 12 12 12 12 12 12 12 12 11 11
4 3 3 2 1 0 2 3 4 5 6 7 8 8 8 9 8 8 8 7 6 5 4 5 5 6 8 8 10 10 11 12 12 13 12 12 13 13 12 12 12 12 11
5 4 3 2 1 0 1 2 4 5 6 7 8 8 8 8 8 8 7 6 5 4 4 3 4 5 7 8 9 10 10 11 12 13 13 13 13 13 13 12 12 11 11
5 4 4 2 1 0 1 2 4 5 6 7 8 8 8 8 8 7 7 6 5 4 3 3 3 4 5 7 8 9 10 11 12 12 13 13 13 13 13 13 12 12 11
5 5 4 2 1 1 0 2 3 5 6 8 8 9 8 8 8 8 7 6 5 4 3 3 3 4 5 6 7 8 9 11 11 12 12 13 13 12 12 12 12 12 11
5 5 4 3 2 2 1 2 3 5 7 8 8 9 9 9 9 8 7 6 5 4 3 2 2 3 5 6 7 7 9 10 11 11 12 12 12 12 12 12 11 11 11
5 6 5 4 3 2 2 2 2 4 6 7 8 9 9 9 9 9 8 7 5 4 3 1 1 3 4 6 7 7 8 9 10 10 11 11 11 11 11 11 11 11 11
6 6 6 5 4 3 2 2 2 4 6 7 8 9 9 10 10 9 8 7 6 4 3 1 1 2 4 5 7 7 8 9 10 10 10 10 11 11 10 10 10 10 11
7 7 7 6 4 4 3 2 2 4 5 7 8 9 9 10 10 9 9 8 7 5 3 2 2 3 4 6 7 7 8 9 9 10 9 9 9 9 9 9 9 10 10
8 7 7 6 5 4 3 2 2 4 5 7 8 9 9 10 10 10 10 9 8 6 5 4 4 5 5 6 7 7 8 9 9 9 9 9 8 8 8 8 8 9 9
8 7 7 6 6 4 3 2 3 4 5 6 7 8 10 10 11 11 11 10 10 9 8 7 7 7 7 7 7 7 8 9 9 9 9 8 8 8 7 7 7 8 8
9 8 7 7 6 4 3 2 2 3 4 6 7 8 10 10 10 11 11 11 11 10 9 9 9 8 8 8 7 7 7 8 8 8 7 7 7 7 7 6 6 6 7
10 10 8 8 6 5 4 3 2 3 4 5 7 8 9 10 10 10 11 11 10 10 9 9 9 9 9 9 8 8 8 8 7 7 6 6 6 5 5 5 5 5 5
11 10 9 8 7 5 4 3 2 2 3 5 6 7 8 10 10 10 11 11 11 11 10 9 9 9 9 9 9 9 9 8 7 7 6 5 5 5 4 4 4 4 5
12 10 10 9 7 6 5 4 3 2 2 4 6 7 8 9 10 10 11 11 11 11 11 11 10 10 9 9 9 9 9 8 7 6 6 5 4 5 4 3 3 4 4
13 12 11 10 8 7 6 5 3 2 2 3 5 6 7 8 9 10 10 10 11 11 11 11 11 10 10 9 9 9 8 7 6 6 5 4 4 3 3 3 2 3 3
14 13 12 11 9 8 6 5 4 3 2 3 4 5 7 7 8 9 10 10 10 10 11 10 10 10 10 9 9 8 7 7 6 5 4 3 3 3 2 1 1 2 2
14 14 14 12 10 9 7 6 5 4 3 3 3 5 6 7 7 8 9 9 10 10 10 10 10 10 9 9 9 8 7 7 6 5 4 3 3 2 2 1 1 1 0
15 15 14 13 11 10 8 7 6 4 3 3 2 3 5 6 6 7 8 8 9 9 10 10 10 9 9 9 9 8 8 7 6 6 4 3 3 2 1 1 0 0 1
Wind_Direction
119 86 55 20 7 13 36 39 27 13 10 4 355 347 341 342 342 331 323 304 294 284 272 248 233 224 222 221 223 220 220 216 213 212 212 213 211 211 209 206 203 204 203
144 59 21 51 34 15 36 39 24 13 7 356 350 347 340 335 332 325 315 304 291 283 272 248 236 227 224 223 226 224 221 217 212 211 210 212 214 213 211 209 207 208 209
219 291 256 94 79 65 46 28 14 1 354 346 346 344 339 333 327 325 317 309 303 289 281 259 241 234 228 226 228 226 223 216 213 214 213 214 215 214 213 210 211 212 213
221 234 228 254 16 35 26 7 360 352 349 346 349 345 340 335 328 321 309 304 301 294 280 266 247 235 233 232 228 224 222 218 215 214 214 213 215 214 213 210 212 213 215
217 224 231 236 273 321 350 353 354 355 353 349 347 342 339 335 328 320 310 301 295 291 280 262 246 238 239 234 228 223 220 219 215 214 215 215 216 212 207 208 211 213 216
208 207 213 228 262 313 357 1 356 357 354 351 345 340 339 334 329 324 319 310 299 287 273 256 247 245 240 232 228 224 220 219 216 215 215 216 216 214 209 208 212 214 215
205 205 211 214 250 316 349 354 356 353 351 349 346 345 343 337 332 328 323 317 306 289 274 261 249 244 235 231 228 224 219 218 217 217 217 216 216 213 211 211 213 214 215
204 213 218 212 232 303 347 355 356 355 355 352 349 346 342 337 333 330 325 318 312 296 282 266 250 244 232 229 228 224 219 216 216 216 216 214 212 212 214 214 215 217 217
209 216 213 213 218 281 1 3 1 358 356 355 352 348 344 339 336 334 331 327 322 309 288 264 247 235 226 223 222 221 217 215 213 212 212 211 211 212 214 215 217 219 220
212 211 199 190 181 20 19 11 4 360 358 355 352 349 346 344 343 341 338 335 330 323 306 275 250 235 222 217 216 215 215 213 211 209 208 209 210 211 213 215 216 219 221
214 204 198 191 178 159 37 17 5 1 358 358 356 353 351 350 348 345 343 340 334 328 314 284 250 234 222 216 213 211 211 209 206 206 206 207 208 210 212 214 216 218 221
220 212 201 199 205 189 144 31 11 6 2 3 2 0 359 357 354 352 348 344 339 329 316 288 245 226 217 210 210 210 208 205 204 203 204 205 208 209 209 211 214 218 220
216 200 195 197 185 167 119 51 19 14 11 11 8 9 8 4 1 0 357 353 348 340 324 294 244 217 208 204 204 203 201 200 200 201 202 203 205 207 207 207 212 217 219
201 199 195 184 173 162 123 68 33 24 19 16 15 16 14 12 10 13 13 10 5 360 349 321 229 204 197 195 194 193 192 192 193 194 196 199 201 202 205 208 211 213 215
196 195 189 182 169 154 126 90 44 24 22 21 21 21 19 19 19 20 19 18 18 15 13 25 124 175 179 179 182 182 182 183 186 188 190 193 197 198 199 200 204 208 212
183 181 181 173 158 150 134 99 47 33 32 29 28 27 26 25 25 27 25 26 26 28 32 55 102 127 150 163 169 172 174 176 180 182 184 185 190 195 194 195 202 207 213
180 176 177 166 157 149 139 99 62 51 44 39 34 31 31 31 33 36 36 36 37 44 54 72 95 109 130 147 156 163 167 169 173 176 180 183 188 190 189 192 201 208 214
183 177 174 166 162 158 150 122 78 59 49 43 38 37 36 38 39 41 43 46 51 58 68 80 92 101 115 132 145 154 159 163 168 174 177 181 187 191 192 192 200 207 213
189 183 181 171 168 168 160 135 94 66 54 46 43 42 42 43 43 45 46 51 57 64 73 83 92 99 107 116 130 140 147 153 160 166 172 179 186 189 192 191 195 205 209
193 185 183 175 172 170 163 146 114 80 59 52 48 47 45 44 46 48 51 56 59 68 78 86 93 100 105 110 117 125 133 141 147 154 163 172 181 184 179 179 195 206 213
193 188 183 174 171 169 167 157 137 100 65 54 52 51 47 46 49 53 56 59 62 68 77 85 92 99 104 107 112 118 124 128 133 140 148 159 174 182 180 184 196 203 207
191 191 187 180 178 177 175 167 149 119 79 60 57 54 50 49 52 57 59 62 66 70 76 84 92 97 102 106 111 114 118 121 122 126 132 141 158 169 177 188 194 199 208
194 193 188 184 182 181 179 172 157 137 100 76 65 59 56 54 56 58 61 66 69 73 78 85 92 95 98 103 108 112 114 115 117 119 117 124 129 138 157 186 206 204 209
195 196 193 188 187 186 184 175 167 156 123 94 75 66 61 60 61 62 66 70 72 75 79 83 90 95 98 100 105 108 110 109 112 115 112 113 122 136 152 175 207 209 219
197 199 196 192 192 191 190 182 174 169 146 118 88 74 67 65 65 67 72 75 75 78 80 82 85 90 96 98 99 98 101 101 103 108 111 116 117 121 131 143 147 171 186
198 197 196 195 195 195 192 187 181 175 163 151 118 87 75 70 69 71 77 77 79 80 81 85 86 89 93 93 92 91 93 94 92 96 102 104 96 94 99 90 44 350 322
Height
5899 5898 5898 5897 5896 5895 5895 5894 5894 5893 5892 5891 5890 5890 5889 5888 5887 5886 5886 5885 5885 5885 5884 5885 5885 5885 5886 5886 5886 5887 5888 5889 5889 5890 5891 5892 5893 5894 5895 5896 5897 5898 5898
5899 5898 5897 5897 5896 5895 5894 5894 5893 5893 5892 5891 5890 5889 5888 5887 5886 5885 5885 5884 5883 5883 5883 5883 5883 5883 5884 5884 5885 5886 5886 5887 5888 5889 5890 5891 5892 5893 5894 5895 5896 5897 5898
5898 5898 5897 5896 5896 5895 5894 5893 5893 5893 5892 5891 5890 5889 5887 5886 5885 5884 5884 5883 5882 5882 5881 5881 5882 5882 5882 5883 5883 5884 5885 5886 5887 5888 5889 5890 5891 5892 5893 5894 5895 5896 5897
5898 5897 5897 5896 5895 5895 5894 5893 5893 5892 5891 5890 5889 5888 5886 5885 5884 5883 5882 5881 5881 5880 5880 5880 5880 5880 5880 5881 5882 5883 5884 5885 5885 5886 5887 5889 5890 5891 5892 5893 5894 5895 5896
5897 5896 5896 5895 5895 5894 5894 5893 5893 5892 5891 5889 5888 5887 5885 5884 5883 5881 5880 5880 5879 5878 5878 5878 5878 5878 5879 5879 5880 5881 5882 5883 5884 5885 5886 5887 5888 5889 5891 5892 5893 5894 5895
5896 5896 5895 5895 5895 5894 5893 5893 5892 5891 5890 5889 5887 5886 5884 5883 5881 5880 5878 5878 5877 5876 5876 5876 5876 5876 5877 5877 5878 5879 5880 5881 5882 5883 5884 5885 5887 5888 5889 5891 5892 5893 5894
5895 5895 5895 5895 5894 5894 5893 5892 5892 5891 5889 5888 5886 5885 5883 5882 5880 5879 5877 5876 5875 5874 5874 5874 5874 5874 5875 5875 5876 5877 5878 5880 5881 5882 5883 5884 5885 5887 5888 5889 5890 5892 5893
5895 5894 5894 5894 5894 5893 5893 5892 5891 5890 5889 5887 5886 5884 5882 5881 5879 5877 5876 5874 5873 5872 5871 5871 5871 5872 5873 5873 5874 5875 5876 5878 5879 5880 5881 5882 5884 5885 5887 5888 5889 5890 5891
5894 5894 5893 5893 5893 5893 5893 5892 5891 5890 5889 5887 5885 5883 5881 5879 5878 5876 5874 5872 5871 5870 5870 5869 5869 5870 5871 5871 5872 5873 5874 5876 5877 5878 5880 5881 5882 5884 5885 5887 5888 5889 5890
5893 5893 5893 5893 5893 5893 5892 5892 5891 5890 5889 5887 5885 5883 5881 5879 5877 5875 5873 5871 5870 5869 5868 5868 5868 5868 5869 5870 5871 5872 5872 5874 5875 5877 5878 5879 5881 5883 5884 5885 5887 5888 5889
5892 5892 5892 5892 5892 5892 5892 5892 5891 5890 5888 5887 5884 5882 5880 5878 5876 5874 5872 5870 5869 5868 5867 5867 5866 5867 5867 5868 5869 5870 5871 5872 5873 5875 5876 5878 5880 5881 5883 5884 5885 5886 5887
5891 5892 5892 5892 5892 5892 5892 5892 5891 5890 5888 5886 5884 5882 5879 5877 5875 5873 5871 5869 5868 5867 5866 5865 5865 5865 5865 5866 5867 5868 5869 5870 5872 5873 5875 5876 5878 5880 5881 5883 5884 5885 5886
5890 5891 5891 5892 5892 5892 5892 5891 5891 5889 5888 5886 5884 5882 5879 5877 5875 5873 5870 5869 5867 5866 5865 5864 5864 5864 5864 5865 5866 5867 5868 5869 5870 5872 5874 5875 5877 5879 5880 5882 5883 5884 5885
5889 5890 5891 5891 5892 5892 5892 5891 5891 5890 5888 5886 5884 5882 5880 5877 5875 5872 5870 5868 5867 5865 5864 5864 5863 5863 5863 5864 5865 5866 5867 5868 5870 5871 5873 5874 5876 5877 5879 5880 5882 5883 5884
5889 5889 5890 5891 5891 5892 5892 5892 5891 5890 5888 5887 5884 5882 5880 5877 5875 5873 5870 5868 5867 5865 5864 5863 5863 5863 5863 5864 5865 5865 5867 5868 5869 5871 5873 5874 5875 5877 5878 5879 5880 5881 5882
5888 5889 5890 5891 5891 5892 5892 5892 5891 5890 5889 5887 5885 5883 5880 5878 5875 5873 5871 5869 5867 5865 5864 5863 5863 5863 5863 5864 5864 5866 5867 5868 5870 5871 5873 5874 5875 5876 5877 5878 5879 5880 5881
5888 5889 5890 5891 5891 5892 5892 5892 5891 5890 5889 5887 5885 5883 5881 5878 5876 5873 5871 5869 5867 5865 5864 5863 5863 5863 5863 5864 5865 5866 5867 5869 5870 5871 5873 5874 5875 5876 5877 5878 5879 5879 5880
5887 5889 5890 5891 5891 5892 5892 5892 5892 5891 5890 5888 5886 5884 5882 5879 5877 5874 5872 5870 5868 5866 5865 5865 5864 5864 5864 5865 5866 5867 5868 5869 5871 5872 5873 5874 5875 5876 5876 5877 5878 5879 5879
5887 5889 5890 5891 5891 5892 5892 5892 5892 5891 5890 5889 5887 5885 5883 5880 5878 5876 5873 5871 5869 5868 5867 5866 5866 5866 5866 5866 5867 5868 5869 5870 5871 5872 5873 5874 5875 5876 5876 5877 5878 5878 5879
5887 5888 5889 5890 5891 5892 5892 5893 5893 5892 5891 5889 5888 5886 5884 5882 5879 5877 5875 5873 5871 5870 5869 5868 5868 5868 5868 5868 5869 5870 5870 5871 5872 5873 5874 5875 5875 5876 5876 5877 5878 5878 5878
5886 5888 5889 5890 5891 5892 5893 5893 5893 5892 5891 5890 5888 5887 5885 5883 5881 5878 5877 5875 5873 5872 5871 5870 5870 5870 5870 5870 5871 5871 5872 5873 5873 5874 5875 5876 5876 5876 5877 5877 5878 5878 5878
5885 5887 5888 5890 5891 5892 5893 5893 5893 5893 5892 5891 5889 5888 5886 5884 5882 5880 5879 5877 5876 5874 5873 5872 5872 5872 5872 5872 5873 5873 5874 5875 5875 5875 5876 5876 5876 5877 5877 5877 5877 5878 5878
5884 5886 5888 5889 5891 5892 5892 5893 5893 5893 5892 5891 5890 5889 5887 5885 5884 5882 5880 5879 5878 5877 5876 5875 5874 5874 5874 5875 5875 5875 5876 5876 5876 5876 5876 5877 5877 5877 5877 5877 5877 5877 5877
5883 5886 5887 5889 5890 5891 5892 5893 5893 5893 5893 5892 5891 5890 5888 5887 5885 5884 5882 5881 5880 5879 5878 5878 5877 5877 5877 5877 5877 5877 5877 5877 5878 5878 5878 5878 5878 5878 5878 5877 5877 5877 5876
5882 5884 5886 5888 5890 5891 5892 5893 5893 5893 5893 5892 5892 5891 5890 5888 5887 5886 5885 5883 5883 5882 5881 5880 5880 5879 5879 5879 5879 5879 5879 5879 5879 5879 5879 5879 5879 5879 5879 5878 5877 5877 5876
5881 5883 5885 5888 5889 5891 5892 5892 5893 5893 5893 5893 5892 5892 5891 5890 5889 5887 5886 5886 5885 5884 5883 5883 5882 5882 5881 5881 5881 5881 5880 5880 5880 5880 5880 5880 5880 5880 5879 5878 5878 5877 5876